Regional Weather Roundup
Issued by NWS

Home | Current Version | Previous Version | Graphics & Text | Print | Product List | Glossary On
Versions: 1 2 3 4 5 6 7 8 9 10 11 12 13 14 15 16 17 18 19 20 21 22 23 24 25 26 27 28 29 30 31 32 33 34 35 36 37 38 39 40 41 42 43 44 45 46 47 48 49 50
000
ASUS43 KDMX 030807
RWRIA

WEATHER ROUNDUP FOR IOWA
NATIONAL WEATHER SERVICE DES MOINES IA
300 AM CDT THU SEP 03 2015

NOTE: "FAIR" INDICATES FEW OR NO CLOUDS BELOW 12,000 FEET WITH NO
SIGNIFICANT WEATHER AND/OR OBSTRUCTIONS TO VISIBILITY.

* - THESE STATIONS ARE NOT NWS STATIONS...THUS NOT UNDER NWS
QUALITY CONTROL.  THEY ALSO DO NOT REPORT WEATHER SUCH
AS PRECIPITATION OR FOG.

IAZ001>003-012>014-020>022-031>034-043>046-030900-
   NORTHWEST IOWA

CITY           SKY/WX    TMP DP  RH WIND       PRES   REMARKS
CARROLL *      PTCLDY    73  70  88 S10G16    29.88S
CHEROKEE *     CLEAR     70  70 100 S5        29.86S
DENISON *      CLEAR     73  70  88 S8G17     29.86S
LE MARS *      CLEAR     73  70  88 S9        29.84F
ORANGE CITY *  CLEAR     72  70  94 S6        29.85S
SHELDON *      CLEAR     70  70 100 SE7       29.84F
SIOUX CITY     CLEAR     72  67  84 E9        29.83F
SPENCER        CLEAR     70  67  90 SE5       29.87S FOG
STORM LAKE *   CLEAR     70  70 100 S9        29.88F
$$

IAZ055>058-069>071-079>083-090>094-030900-
   SOUTHWEST IOWA

CITY           SKY/WX    TMP DP  RH WIND       PRES   REMARKS
ATLANTIC *     CLEAR     73  70  88 S7        29.89F
AUDUBON *      CLEAR     72  68  88 S5        29.90F
CLARINDA *     MOCLDY    73  72  94 S6        29.91F
COUNCIL BLFS * CLEAR     72  70  94 SE9       29.87F
CRESTON *      PTCLDY    72  70  94 S8        29.93F
LAMONI         MOCLDY    72  69  90 S7        29.93F
RED OAK *      PTCLDY    73  70  88 S6        29.89S
SHENANDOAH *   PTCLDY    73  70  88 S6        29.89S
$$

IAZ047>049-059>061-072>074-084-030900-
   CENTRAL IOWA

CITY           SKY/WX    TMP DP  RH WIND       PRES   REMARKS
AMES           CLEAR     67  66  97 SE5       29.90S FOG
ANKENY *       CLEAR     75  70  83 S6        29.90S
CHARITON *     PTCLDY    72  68  88 S6        29.93S
DES MOINES     PTCLDY    75  68  78 S7        29.90S
GRINNELL*      CLEAR     72  68  88 S7        29.93S
KNOXVILLE *    CLEAR     73  68  83 SW8G14    29.90F
MARSHALLTOWN   CLEAR     71  68  90 S5        29.91S
PELLA *        CLEAR     72  72 100 S5        29.93S
PERRY *          N/A     72  70  94 S5        29.89F
$$

IAZ004>006-015-016-023>025-035-036-030900-
   NORTH CENTRAL IOWA

CITY           SKY/WX    TMP DP  RH WIND       PRES   REMARKS
ALGONA *       CLEAR     72  68  88 SE7       29.89S
CLARION *      CLEAR     70  68  94 S7        29.90S
ESTHERVILLE    CLEAR     65  65 100 SE6       29.88S FOG
FORT DODGE *   CLEAR     68  64  88 E5        29.90S
MASON CITY     CLEAR     66  66 100 S5        29.91F FOG
FOREST CITY *  CLEAR     63  63 100 CALM      29.90S FOG
IOWA FALLS *     N/A     70  68  94 S5        29.92S
$$

IAZ007>011-017>019-026>030-037>042-050>054-066-030900-
   NORTHEAST IOWA

CITY           SKY/WX    TMP DP  RH WIND       PRES   REMARKS
CEDAR RAPIDS   CLEAR     72  70  93 S7        29.92F
CHARLES CITY * CLEAR     68  68 100 SE6       29.92S FOG
CLINTON *      CLEAR     70  66  88 S3        29.96S
DECORAH *      CLOUDY    72  70  94 CALM      29.92S
DUBUQUE        PTCLDY    69  67  93 SW7       29.94F
MONTICELLO *   CLOUDY    70  68  94 CALM      29.93S
OELWEIN *        N/A     70  68  94 SE3       29.93F
WATERLOO       CLEAR     69  68  96 SE3       29.90S
$$

IAZ064-065-067-068-078-030900-
   EAST CENTRAL IOWA

CITY           SKY/WX    TMP DP  RH WIND       PRES   REMARKS
DAVENPORT      PTCLDY    73  68  84 S7        29.94F
IOWA CITY      CLEAR     70  68  93 CALM      29.93F
MT. PLEASANT * MOCLDY    73  68  83 S5        29.94F
MUSCATINE *    CLEAR     70  68  94 SE6       29.93F
QUAD CITIES    PTCLDY    76  68  76 SW6       29.93F
$$

IAZ062-063-075>077-085>089-095>099-030900-
   SOUTHEAST IOWA

CITY           SKY/WX    TMP DP  RH WIND       PRES   REMARKS
BURLINGTON     MOCLDY    74  70  87 S6        29.94F
FAIRFIELD *    MOCLDY    72  66  83 S6        29.93F
FORT MADISON * MOCLDY    73  72  94 S5        29.96S
KEOKUK *       MOCLDY    75  70  83 S5        29.95S
OSKALOOSA *      N/A     70  68  94 S6        29.93S
CENTERVILLE *  PTCLDY    72  68  88 S6        29.96S
OTTUMWA        CLEAR     71  69  93 S7        29.92S
WASHINGTON *     N/A    N/A N/A N/A MISG        N/A
$$

ABBREVIATIONS USED IN REMARKS
   TC - TEMPERATURES IN CELSIUS
  WCI - WIND CHILL INDEX
   HX - HEAT INDEX
  VSB - VISIBILITY
$$




USA.gov is the U.S. government's official web portal to all federal, state and local government web resources and services.